Location: Demmingen
(48.6757°N, 10.4375°E)
Time: 19:57:23
(UTC+00:00)

SL-16 R/B - Pass Details

Date: 17 August 2024
Orbit: 842 x 845 km, 71.0° (Epoch: 10 September)

Event Time Altitude Azimuth Distance (km) Brightness Sun altitude
Exits shadow 23:01:18 34° 264° (W) 1,368 3.2 -28.1°
Maximum altitude 23:03:04 43° 307° (NW) 1,167 3.1 -28.2°
Drops below altitude 10° 23:08:29 10° 19° (NNE) 2,476 5.4 -28.2°
Sets 23:11:04 0° 26° (NNE) 3,415 6.3 -28.3°
